COSMOS 530

Satellite information

Favourite Embed

Satellite Type and Status

PAYLOADIN ORBIT

Key statistics

Satellite COSMOS 530 at a glance.

Uptime

19407

Days in orbit

Revolutions

≈ 12.7

Per day

Orbit

LEO

Low Earth Orbit

Inclination

74.0

Latest

Satellite identification and parameters

Extended collection of information and parameters for COSMOS 530.

Object identification

Identified? True

Debris? False

Object name: COSMOS 530

International designator: 1972-087C

Object number (NORAD): 6265

Object ID (CCSDS): 6265

Country: COMMONWEALTH OF INDEPENDENT STATES (CIS)

Current information (Y/N): Y

RCS size: MEDIUM

Orbital parameters

Period: 113.773 minutes

Inclination: 74.0324 deg

SMA: 7777.751 km

Apoapsis: 1467.624 km

Periapsis: 1331.608 km

RAAN: 186.1007 deg

Eccentricy: 0.00874389

Argument of periapsis: 299.5544 deg

Mean anomaly: 215.4722 deg

Mean motion: 12.65673544 rev/day

Mean motion (dot): 0.00000003 rev/day2

B* drag term: 0.00010606343 1/REarth

Two-line elements (TLE)

Creation date: Dec. 19, 2025, 2:08 a.m.

Reference frame: TEME

Reference center: EARTH

Epoch: Dec. 18, 2025, 11:23 p.m. UTC

TLE line 0: 0 COSMOS 530

TLE line 1: 1 06265U 72087C 25352.97478353 .00000003 00000-0 10606-3 0 9995

TLE line 2: 2 06265 74.0324 186.1007 0087439 299.5544 215.4722 12.65673544454787

Live tracking on map

Real-time ground track for satellite COSMOS 530.

In-orbit conjunctions

There are no conjunctions computed for COSMOS 530, at the moment. Check back to stay up to date, as we update our databases every day.

Go to all conjunctions

Associated space launch

Military communications satellites

COSMOS 530 was lifted into orbit during the mission ‘Kosmos-3M | Strela-1M 33-40’, on board a Kosmos-3M space rocket.

The launch took place on Nov. 1, 1972, 2:08 a.m. from 132/2.

For more information about the launch, click the button.

Launch to space Kosmos-3M | Strela-1M 33-40
Kosmos-3M | Strela-1M 33-40

Agency: N/A

Status: Launch Successful

Launch date: Nov. 1, 1972, 2:08 a.m. UTC

Rocket: Kosmos-3M

Launch pad: 132/2

Location: Plesetsk Cosmodrome, Russian Federation

...

Latest news about this satellite

There are no fresh news available about this satellite. Check back as we update our databases every day.


Newsletter sign-up

Weekly statistics, charts and insights to help you stay on top of the space industry.